Location: Unspecified
(44.4377°N, 88.0525°W)
Time: 19:02:36
(UTC-06:00)

Resurs 1-4 Rocket - Visible Passes

Search period start: 26 January 2015 00:00
Search period end: 05 February 2015 00:00
Orbit: 801 x 814 km, 98.4° (Epoch: 25 January)

Date Brightness Start Highest point End Pass type
(mag) Time Alt. Az. Time Alt. Az. Time Alt. Az.
27 Jan 4.4 04:56:51 10° N 04:56:58 10° N 04:56:58 10° N visible
28 Jan 4.4 04:31:58 10° N 04:32:19 12° N 04:32:19 12° N visible
29 Jan 4.5 04:07:18 10° N 04:07:40 12° N 04:07:40 12° N visible
30 Jan 4.7 03:42:48 10° NNE 03:43:02 11° NNE 03:43:02 11° NNE visible
31 Jan 4.3 04:58:59 10° N 04:59:30 12° NNW 04:59:30 12° NNW visible
01 Feb 4.3 04:34:05 10° N 04:34:52 14° N 04:34:52 14° N visible
02 Feb 4.3 04:09:23 10° N 04:10:13 15° N 04:10:13 15° N visible
03 Feb 4.5 03:44:52 10° NNE 03:45:36 14° NNE 03:45:36 14° NNE visible
03 Feb 4.2 05:26:24 10° NNW 05:26:42 11° NNW 05:26:42 11° NNW visible
04 Feb 4.8 03:20:31 10° NNE 03:20:58 12° NNE 03:20:58 12° NNE visible
04 Feb 4.1 05:01:06 10° NNW 05:02:04 14° NNW 05:02:04 14° NNW visible
